Regional Weather Roundup
Issued by NWS

Home | Current Version | Previous Version | Text Only | Print | Product List | Glossary Off
Versions: 1 2 3 4 5 6 7 8 9 10 11 12 13 14 15 16 17 18 19 20 21 22 23 24 25 26 27 28 29 30 31 32 33 34 35 36 37 38 39 40 41 42 43 44 45 46 47 48 49 50

000
ASUS43 KIND 310159
RWRIN

WEATHER ROUNDUP FOR INDIANA
NATIONAL WEATHER SERVICE INDIANAPOLIS IN
1000 PM EDT THU JUL 30 2015

NOTE: "FAIR" INDICATES FEW OR NO CLOUDS BELOW 12,000 FEET WITH NO
SIGNIFICANT WEATHER AND/OR OBSTRUCTIONS TO VISIBILITY.

* - STATION DOES NOT REPORT WEATHER SUCH AS PRECIPITATION OR FOG.

+ - STATION NOT QUALITY CONTROLLED BY THE NATIONAL WEATHER SERVICE.
    USE DATA WITH CAUTION...ESPECIALLY DEWPOINT AND RELATIVE
    HUMIDITY OBSERVATIONS.

INZ001>003-010>013-019-020-310300-
NORTHWEST INDIANA

CITY           SKY/WX    TMP DP  RH WIND       PRES   REMARKS
GARY /AIRPORT/ CLEAR     81  59  47 W12       30.01R
KNOX *+        CLEAR     72  59  64 W5        30.00S
MONTICELLO +   CLEAR     73  64  71 W5        30.02S
RENSSELAER +   CLEAR     73  63  68 W5        30.03S

$$

LMZ046-743>745-310300-
SOUTHERN LAKE MICHIGAN

STATION/POSITION TIME  TEMP    WIND        PRES    WAVE
                       AIR SEA DIR/SP/G            HT
                 (UTC) (F)     (DEG/KT/KT) (MB)    (FT)
BURNS HARBOR     0100   80     310/  5/  8 1016.3R
MICHIGAN CITY    0100   80     210/  5/  5   N/A
5NW MICH CITY    0100   77 75  220/  4/  4   N/A     1

$$

INZ004-005-014>016-021>024-310300-
NORTH CENTRAL INDIANA

CITY           SKY/WX    TMP DP  RH WIND       PRES   REMARKS
GOSHEN         CLEAR     70  61  73 S3        30.01R
SOUTH BEND     CLEAR     73  60  63 SW5       30.01R

$$

INZ006>009-017-018-025>027-310300-
NORTHEAST INDIANA

CITY           SKY/WX    TMP DP  RH WIND       PRES   REMARKS
ANGOLA *+      CLEAR     68  61  77 CALM      30.01S
FORT WAYNE     CLEAR     69  61  75 SW5       30.03R

$$

INZ028-029-035-036-043>045-051>053-310300-
WEST CENTRAL INDIANA

CITY           SKY/WX    TMP DP  RH WIND       PRES   REMARKS
CRAWFORDSVL +  CLEAR     65  65 100 CALM        N/A
GREENCASTLE +  CLEAR     70  59  68 CALM      30.07R
LAFAYETTE      CLEAR     71  64  78 W3        30.03S
TERRE HAUTE    CLEAR     70  65  84 CALM      30.05S

$$

INZ030>032-037>040-046>048-054>057-064-065-310300-
CENTRAL INDIANA

CITY           SKY/WX    TMP DP  RH WIND       PRES   REMARKS
GREENWOOD *+   CLEAR     68  61  77 CALM      30.06R
INDIANAPOLIS   PTCLDY    75  60  59 W6        30.04S
-EAGLE CREEK   CLEAR     75  61  61 MISG      30.05R
KOKOMO *+      CLEAR     73  59  60 W8        30.04R
MT COMFORT *+  CLEAR     70  59  68 W5        30.06R
SHELBYVILLE    CLEAR     69  63  81 CALM      30.04S

$$

INZ033-034-041-042-049-050-058-059-310300-
EAST CENTRAL INDIANA

CITY           SKY/WX    TMP DP  RH WIND       PRES   REMARKS
MUNCIE         CLEAR     72  60  66 W3        30.04R

$$

INZ060-061-067>069-081>083-085>088-310300-
SOUTHWEST INDIANA

CITY           SKY/WX    TMP DP  RH WIND       PRES   REMARKS
EVANSVILLE     CLEAR     78  65  63 W5        30.08R
HUNTINGBURG *+ PTCLDY    72  64  78 CALM      30.07R

$$

INZ062-063-066-070>080-084-089>092-310300-
SOUTH CENTRAL AND SOUTHEAST INDIANA

CITY           SKY/WX    TMP DP  RH WIND       PRES   REMARKS
BLOOMINGTON    CLEAR     68  65  90 CALM      30.06S
MADISON *+     PTCLDY    68  64  88 CALM      30.08R
SEYMOUR +      CLEAR     68  64  88 CALM      30.05R

$$




USA.gov is the U.S. government's official web portal to all federal, state and local government web resources and services.